Location: Earls Croome
(52.0667°N, 2.2000°W)
Time: 00:14:42
(UTC+00:00)

RESURS DK-1 - Pass Details

Date: 17 November 2019
Orbit: 556 x 562 km, 69.9° (Epoch: 08 December)

Event Time Altitude Azimuth Distance (km) Brightness Sun altitude
Exits shadow 06:19:41 - 335° (NNW) 2,249 5.0 -10.9°
Reaches altitude 10° 06:20:43 10° 340° (NNW) 1,858 4.7 -10.8°
Maximum altitude 06:24:34 35° 47° (NE) 915 3.7 -10.2°
Drops below altitude 10° 06:28:23 10° 115° (ESE) 1,851 6.6 -9.7°
Sets 06:30:44 0° 124° (SE) 2,743 7.7 -9.3°
